Location: Edmonton
(53.5500°N, 113.5000°W)
Time: 07:04:34
(UTC-07:00)

N. Korean satellite - Pass Details

Date: 27 October 2019
Orbit: 456 x 506 km, 97.2° (Epoch: 20 November)

Event Time Altitude Azimuth Distance (km) Brightness Sun altitude
Rises 06:46:03 0° 23° (NNE) 2,581 10.6 -15.0°
Reaches altitude 10° 06:48:27 10° 39° (NE) 1,702 9.8 -14.6°
Maximum altitude 06:51:25 23° 93° (E) 1,103 9.4 -14.2°
Drops below altitude 10° 06:54:24 10° 147° (SSE) 1,708 9.8 -13.7°
Sets 06:56:48 0° 162° (SSE) 2,591 10.5 -13.4°
